Simultaneous Nadir Overpasses (SNOs) Predictions

Prediction of SNOs between AQUA and METOP-B Satellite Orbit:

Table of predicted SNOs for the next 14.0 days since TLE Epoch: 7/16/2022
Index Date (AQUA) Time (AQUA) Lat,Lon (AQUA) SZA (AQUA ) Date (METOP-B) Time (METOP-B) Lat,Lon (METOP-B) SZA (METOP-B ) Distance(km) Time Diff (sec)
1 07/18/2022 07:47:10 74.01, 57.81 53.06 07/18/2022 07:46:47 73.99, 57.82 53.04 2.68 23
2 07/18/2022 08:36:36 -74.07,-134.67 126.88 07/18/2022 08:37:27 -74.09,-134.61 126.87 3.28 51
3 07/21/2022 02:31:20 -73.95, -43.09 126.50 07/21/2022 02:30:30 -73.95, -43.20 126.49 3.47 50
4 07/21/2022 03:20:49 74.05, 124.32 53.62 07/21/2022 03:21:08 74.02, 124.31 53.59 3.21 19
5 07/23/2022 21:15:26 73.61,-143.36 53.69 07/23/2022 21:14:17 73.58,-145.00 53.74 51.59 69
6 07/23/2022 22:04:59 -74.01, 23.38 125.87 07/23/2022 22:04:50 -74.03, 23.40 125.85 1.51 9
7 07/23/2022 22:54:27 74.07,-169.10 54.20 07/23/2022 22:55:29 74.05,-169.21 54.18 3.72 62
8 07/26/2022 16:49:10 74.01, -77.65 54.73 07/26/2022 16:48:29 73.99, -77.60 54.72 2.65 41
9 07/26/2022 17:38:36 -74.05, 89.90 125.22 07/26/2022 17:39:10 -74.05, 89.86 125.23 1.35 34
10 07/29/2022 11:33:19 -73.97,-178.58 124.68 07/29/2022 11:32:11 -73.99,-178.54 124.65 2.59 68
11 07/29/2022 12:22:47 74.03, -11.08 55.40 07/29/2022 12:22:50 74.01, -11.15 55.39 3.05 3



Historial Predications of SNOs between AQUA and METOP-B
